Weather History for KAVL - March, 2013

Change the Weather History Date:

Sunday, March 10, 2013

  Actual Average Record
Temperature  
Mean Temperature 49 °F 46 °F  
Max Temperature 63 °F 57 °F 76 °F (1974)
Min Temperature 34 °F 34 °F 10 °F (1996)
Degree Days  
Heating Degree Days 16 19  
Month to date heating degree days 272 205  
Since 1 July heating degree days 3213 3422  
Cooling Degree Days 0 0  
Month to date cooling degree days 0 0  
Year to date cooling degree days 0 0  
Moisture  
Dew Point 31 °F    
Average Humidity 55    
Maximum Humidity 82    
Minimum Humidity 27    
Precipitation  
Precipitation 0.00 in 0.12 in 2.22 in (1952)
Month to date precipitation 0.69 1.24  
Year to date precipitation 12.83 8.67  
Snow  
Snow 0.00 in 0.10 in 2.80 in (1975)
Month to date snowfall T 0.7  
Since 1 July snowfall 0.2 8.0  
Snow Depth 0.00 in    
Sea Level Pressure  
Sea Level Pressure 30.20 in    
Wind  
Wind Speed 6 mph (SSE)    
Max Wind Speed 16 mph    
Max Gust Speed 22 mph    
Visibility 10 miles    
Events      
T = Trace of Precipitation, MM = Missing Value Source: NWS Daily Summary

Daily Weather History Graph

Daily Weather History Graph

Search for Another Location

Airport or City:

Trip Planner

Search our weather history database for the weather conditions in past years. The results will help you decide how hot, cold, wet, or windy it might be!

Date:

Astronomy

Mar. 10, 2013 Rise Set
Actual Time 7:47 AM EDT 7:33 PM EDT
Civil Twilight 7:22 AM EDT 7:59 PM EDT
Nautical Twilight 6:52 AM EDT 8:28 PM EDT
Astronomical Twilight 6:23 AM EDT 8:58 PM EDT
Moon 6:45 AM EDT (3/10) 6:40 PM EDT (3/10)
Length of Visible Light 12h 36m
Length of Day
11h 46m
Waning Crescent, 2% of the Moon is Illuminated
Mar 10
Waning Crescent
Mar 11
New
Mar 19
First Quarter
Mar 27
Full
Apr 3
Last Quarter

Hourly Weather History & Observations

Time (EDT) Temp. Windchill Dew Point Humidity Pressure Visibility Wind Dir Wind Speed Gust Speed Precip Events Conditions
12:54 AM 42.1 °F - 28.9 °F 60% 30.24 in 10.0 mi Calm Calm - N/A   Clear
1:54 AM 39.9 °F 36.7 °F 30.0 °F 68% 30.24 in 10.0 mi SSE 4.6 mph - N/A   Clear
3:54 AM 39.0 °F - 28.9 °F 67% 30.22 in 10.0 mi Calm Calm - N/A   Clear
4:54 AM 36.0 °F - 30.0 °F 79% 30.21 in 10.0 mi Calm Calm - N/A   Clear
5:54 AM 36.0 °F - 30.0 °F 79% 30.22 in 10.0 mi Calm Calm - N/A   Clear
6:54 AM 35.1 °F - 30.0 °F 82% 30.23 in 10.0 mi Calm Calm - N/A   Clear
7:54 AM 35.6 °F - 30.2 °F 81% 30.25 in 10.0 mi Calm Calm - N/A   Clear
8:54 AM 39.0 °F 36.8 °F 30.0 °F 70% 30.26 in 10.0 mi SSE 3.5 mph - N/A   Clear
9:54 AM 42.1 °F 37.7 °F 30.9 °F 65% 30.26 in 10.0 mi SSE 6.9 mph - N/A   Partly Cloudy
10:54 AM 51.1 °F - 32.0 °F 48% 30.25 in 10.0 mi South 8.1 mph - N/A   Clear
11:54 AM 55.0 °F - 30.9 °F 40% 30.23 in 10.0 mi South 9.2 mph - N/A   Clear
12:54 PM 57.9 °F - 28.9 °F 33% 30.21 in 10.0 mi SE 9.2 mph 20.7 mph N/A   Clear
1:54 PM 60.1 °F - 30.0 °F 32% 30.19 in 10.0 mi SE 10.4 mph - N/A   Clear
2:54 PM 62.1 °F - 28.9 °F 29% 30.16 in 10.0 mi SE 9.2 mph 18.4 mph N/A   Clear
3:54 PM 62.1 °F - 28.0 °F 28% 30.15 in 10.0 mi SE 11.5 mph 18.4 mph N/A   Clear
4:54 PM 61.0 °F - 28.0 °F 29% 30.15 in 10.0 mi SE 11.5 mph 21.9 mph N/A   Clear
5:54 PM 60.1 °F - 30.0 °F 32% 30.15 in 10.0 mi SE 9.2 mph 18.4 mph N/A   Clear
6:54 PM 59.0 °F - 30.0 °F 33% 30.15 in 10.0 mi SE 8.1 mph - N/A   Clear
7:54 PM 55.9 °F - 32.0 °F 40% 30.17 in 10.0 mi SSE 6.9 mph - N/A   Clear
8:54 PM 54.0 °F - 33.1 °F 45% 30.17 in 10.0 mi SE 5.8 mph - N/A   Clear
9:54 PM 53.1 °F - 33.1 °F 47% 30.17 in 10.0 mi SE 6.9 mph - N/A   Clear
10:54 PM 51.1 °F - 33.1 °F 50% 30.16 in 10.0 mi SSE 4.6 mph - N/A   Clear
11:54 PM 48.9 °F - 33.1 °F 54% 30.15 in 10.0 mi SSE 3.5 mph - N/A   Clear
12:54 AM 51.1 °F - 33.1 °F 50% 30.13 in 10.0 mi SSE 6.9 mph - N/A   Overcast